Hourly Data Report for August 02, 2016

TORONTO CITY
ONTARIO

43°40'00.000" N
79°24'00.000" W
112.50 m
6158355
71508
XTO

Download Data

Hourly Data (August 2016)
Hourly Data Report for August 2, 2016
TIME
LST
Temp Definition
°C
Dew Point Definition
°C
Rel Hum Definition
%
Precip. Amount Definition
mm

Wind Dir Definition
10's deg

Wind Spd Definition
km/h
Visibility Definition
km
Stn Press Definition
kPa
Hmdx Definition


Wind Chill Definition


Weather Definition


00:00 21.6 14.5 64 0.0 LegendMM LegendMM   100.58 25   LegendNANA
01:00 21.1 14.5 66 0.0 LegendMM LegendMM   100.54 25   LegendNANA
02:00 21.0 16.4 75 0.0 LegendMM LegendMM   100.54 26   LegendNANA
03:00 20.4 16.2 77 0.0 LegendMM LegendMM   100.52 25   LegendNANA
04:00 19.9 16.1 79 0.0 LegendMM LegendMM   100.54     LegendNANA
05:00 19.4 15.8 80 0.0 LegendMM LegendMM   100.56     LegendNANA
06:00 19.5 16.0 80 0.0 LegendMM LegendMM   100.56     LegendNANA
07:00 21.9 16.5 71 0.0 LegendMM LegendMM   100.60 27   LegendNANA
08:00 23.2 17.2 69 0.0 LegendMM LegendMM   100.65 29   LegendNANA
09:00 24.1 18.7 72 0.0 LegendMM LegendMM   100.66 31   LegendNANA
10:00 25.2 17.8 64 0.0 LegendMM LegendMM   100.69 31   LegendNANA
11:00 26.4 16.5 54 0.0 LegendMM LegendMM   100.70 31   LegendNANA
12:00 27.0 16.3 52 0.0 LegendMM LegendMM   100.73 32   LegendNANA
13:00 27.7 14.5 44 0.0 LegendMM LegendMM   100.70 31   LegendNANA
14:00 27.2 15.3 48 0.0 LegendMM LegendMM   100.63 31   LegendNANA
15:00 27.1 14.7 47 0.0 LegendMM LegendMM   100.61 31   LegendNANA
16:00 27.5 14.7 46 0.0 LegendMM LegendMM   100.56 31   LegendNANA
17:00 27.3 12.3 39 0.0 LegendMM LegendMM   100.55 30   LegendNANA
18:00 26.6 12.8 42 0.0 LegendMM LegendMM   100.52 29   LegendNANA
19:00 25.2 13.0 47 0.0 LegendMM LegendMM   100.51 28   LegendNANA
20:00 24.2 12.4 48 0.0 LegendMM LegendMM   100.51 27   LegendNANA
21:00 23.1 13.7 55 0.0 LegendMM LegendMM   100.51 26   LegendNANA
22:00 23.6 15.7 61 0.0 LegendMM LegendMM   100.53 28   LegendNANA
23:00 22.6 16.5 69 0.0 LegendMM LegendMM   100.55 28   LegendNANA

Notes on Data Quality.

Legend

  • E = Estimated
  • M = Missing
  • NA = Not Available*
  • [empty] = Indicates an unobserved value
Date modified: